Lid_Strength_Index
-1 -1 -1 -1 -1 -1 -1 -1 -1 -2 -2 -1 -1 0 0 0 1 7 9 5 1 -2 -0 4 7 7 8 10 9 9 12 14 14 13 13 13 12 9 7 8 8 7 8 5 3
-1 -1 -1 -1 -1 -1 -1 -1 -2 -2 -1 -1 -0 0 1 1 7 8 4 -1 -2 0 6 8 8 9 11 11 11 11 13 13 13 14 14 13 13 12 11 10 8 8 5 4 3
-1 -1 -1 -1 -1 -1 -2 -2 -1 -1 -1 1 1 2 2 4 10 8 1 -0 -1 2 5 7 8 9 12 12 12 13 12 13 13 13 13 13 14 14 14 13 10 9 6 4 4
-1 -1 -1 -1 -1 -1 -1 -2 -1 -1 -0 1 2 1 2 8 13 8 1 0 -0 5 7 8 8 11 13 13 11 13 12 12 12 13 14 14 14 14 13 12 10 8 6 4 4
-1 -1 -1 -1 -1 -1 -1 -2 -1 -0 0 1 1 2 7 11 11 7 2 4 6 7 8 9 10 11 12 12 12 13 13 12 13 13 14 13 14 14 14 13 11 7 6 5 5
-0 -1 -1 -1 -1 -1 -1 -2 -1 1 1 1 1 3 9 12 8 8 8 6 7 7 9 9 10 10 12 13 13 13 13 14 14 13 13 14 14 15 14 14 12 7 7 6 6
-0 -0 -0 -1 -1 -1 -1 -0 -0 1 1 1 1 8 10 12 8 8 9 7 7 7 8 9 9 10 12 13 12 13 14 13 13 13 13 14 15 15 14 13 12 9 8 7 7
0 0 -0 -1 -1 -1 -1 -0 0 1 0 0 3 9 12 8 9 8 8 8 7 6 8 8 8 10 12 12 12 15 14 17 13 14 13 15 17 14 14 13 13 12 10 9 8
1 1 0 0 0 -0 -0 1 1 1 1 2 8 10 13 7 10 9 9 9 8 7 9 8 10 13 12 14 17 16 20 18 16 15 15 16 17 15 15 13 13 13 12 10 10
2 2 2 2 1 1 0 1 2 4 6 9 10 11 11 12 10 10 10 9 9 9 11 12 14 16 17 16 20 19 19 18 18 16 17 18 17 15 16 16 16 16 15 13 11
1 2 2 2 1 2 5 8 11 11 11 14 14 13 12 10 10 11 11 11 10 12 16 15 17 19 18 18 17 18 19 19 18 17 18 20 19 16 15 17 17 17 17 16 15
1 2 1 1 2 3 7 10 12 10 14 11 12 12 11 12 13 11 10 13 14 17 14 16 19 17 16 16 18 18 18 19 18 18 19 19 18 17 17 18 18 17 16 16 14
2 2 1 1 2 7 9 9 7 8 13 13 11 12 11 11 13 12 11 13 15 16 17 17 18 16 17 18 18 19 19 20 20 19 19 20 18 17 17 17 17 17 17 16 15
3 2 2 2 6 9 10 7 7 8 16 14 12 11 10 11 14 11 12 13 15 17 18 17 16 17 17 19 19 20 18 19 19 20 22 20 21 18 18 18 18 18 18 18 17
3 3 3 4 9 11 9 7 8 9 22 14 13 10 12 13 14 12 13 13 17 17 16 18 18 18 18 18 18 19 18 19 19 21 21 21 23 18 19 17 17 19 19 19 18
4 4 4 8 9 9 8 8 10 16 23 18 15 15 15 15 14 13 15 13 14 16 17 18 17 19 19 18 18 18 18 19 20 22 24 26 23 18 18 18 19 19 19 19 19
4 5 7 8 11 9 8 11 16 21 18 18 18 16 17 17 16 16 17 19 19 19 20 18 18 18 18 20 18 19 20 23 21 23 21 30 25 17 17 18 18 18 19 19 19
5 7 9 10 10 9 11 14 21 23 21 17 17 17 18 17 17 17 18 19 19 19 21 22 19 19 18 19 21 20 21 22 26 25 23 29 24 18 18 19 19 19 19 19 20
5 9 11 10 10 10 13 20 21 19 17 17 17 19 19 18 19 19 20 20 19 19 20 22 19 19 18 19 19 20 23 21 27 34 29 23 20 17 19 19 19 19 20 20 20
9 11 10 10 10 13 17 20 20 17 16 17 19 19 22 21 20 19 20 19 19 18 18 21 22 20 19 19 20 19 20 22 24 27 28 23 26 19 18 18 19 20 20 20 20
10 11 10 11 12 15 20 25 20 16 16 18 19 21 19 20 20 20 20 19 18 19 18 20 21 19 20 22 21 22 23 22 22 22 26 29 22 18 18 19 20 20 20 21 21
12 12 10 12 16 25 23 21 16 17 16 17 18 18 19 19 20 22 20 19 18 19 20 19 20 24 19 20 20 20 21 21 22 23 26 26 23 19 20 24 26 21 20 21 23
12 12 10 12 17 23 20 19 17 17 18 18 18 18 19 21 20 20 19 17 17 18 19 19 22 23 18 20 21 22 21 21 23 22 25 26 19 22 25 24 22 22 21 21 22
11 14 13 15 18 18 20 19 19 17 17 17 18 18 19 21 19 21 19 18 18 17 15 17 20 20 19 17 20 21 22 21 23 28 23 22 17 15 15 15 15 19 20 19 20
14 17 17 16 16 18 19 19 19 19 18 18 19 18 19 21 20 22 19 19 18 15 18 19 24 23 22 21 22 20 21 23 24 22 24 17 19 16 15 15 15 17 18 19 21
13 14 17 19 17 17 17 18 19 19 17 18 19 19 19 20 16 17 19 19 18 19 20 20 23 26 24 21 21 22 21 21 21 21 21 21 21 16 16 16 16 16 18 20 21
15 14 11 16 17 17 16 17 17 17 17 17 17 18 19 18 18 18 19 19 19 19 20 23 26 28 24 25 24 19 18 21 23 23 21 21 15 16 16 16 17 17 18 18 20